Location: Bratislava
(0.0000°N, 17.1167°E)
Time: 13:34:03
(UTC+01:00)

Daily predictions for brighter satellites

Satellite Brightness Start Highest point End
(mag) Time Altitude Azimuth Time Altitude Azimuth Time Altitude Azimuth
DELTA 2 R/B (1) 4.5 18:05:41 10° NNW 18:10:24 28° NE 18:15:06 10° E
CZ-2C R/B 3.8 18:08:09 10° NNE 18:12:52 89° ESE 18:17:31 10° SSW
H-2A R/B 3.0 18:11:01 10° SSE 18:14:42 45° ENE 18:18:24 10° N
Cosmos 1315 Rocket 3.6 18:11:13 10° SSE 18:14:47 31° E 18:18:17 10° NNE
YAOGAN 1 3.0 18:10:56 10° SSE 18:14:58 39° ENE 18:19:00 10° N
Elektron 3 4.4 18:13:05 10° SSW 18:16:03 72° WNW 18:20:31 10° NNE
ALOS 4.1 18:12:24 10° SSW 18:16:41 37° WSW 18:20:58 10° NW
CSL-04 Debris 4.2 18:11:29 10° SSE 18:16:52 65° ENE 18:22:13 10° N
Ariane H10-3 4.4 18:04:48 10° W 18:17:15 66° SSW 18:21:23 10° ESE
Envisat 4.3 18:14:14 10° ESE 18:17:35 18° ENE 18:20:54 10° NE
Gblst 52 Del rocket 4.3 18:16:50 10° SW 18:22:19 77° NW 18:28:08 10° NNE
CZ-4 R/B 1.5 18:19:14 10° SSE 18:23:25 87° E 18:27:38 10° N
BLOCK DM-SL R/B 3.3 18:19:18 10° W 18:24:10 88° S 18:28:23 10° E
SL-19 R/B 4.4 18:22:12 10° NNE 18:25:13 42° ESE 18:28:38 10° S
Cosmos 1455 Rocket 3.7 18:23:05 10° NNE 18:27:03 34° E 18:31:02 10° SSE
Ariane H10+ 4.3 18:12:19 10° W 18:27:40 76° S 18:33:03 10° E
Cosmos 2237 Rocket 4.0 18:23:47 10° SW 18:28:42 32° WNW 18:33:37 10° NNW
ARIANE 5 DEB (SYLDA) 3.7 18:25:51 10° WNW 18:29:32 56° N 18:36:01 11° E
CZ-4 R/B 4.4 18:25:41 10° SSE 18:29:48 84° E 18:33:54 10° N
GPS 2-14 Rocket1 2.8 18:27:23 10° WSW 18:31:36 86° SSE 18:34:59 15° ENE
ATLAS 3B CENTAUR R/B 3.7 18:26:59 10° SW 18:32:43 52° SE 18:44:35 15° ENE
ARIANE 5 R/B 1.9 18:42:52 10° WSW 18:44:41 21° S 18:45:43 13° SE
Cosmos 1802 Rocket 4.3 18:40:04 10° SSE 18:45:58 44° E 18:51:45 10° NNE
ARIANE 5 DEB (SYLDA) 3.0 18:43:02 10° W 18:47:27 49° S 18:49:04 20° ESE
GPS 2-04 Rocket1 4.1 18:44:27 10° NNW 18:47:41 21° NE 18:48:08 21° NE
CENTAUR R/B 2.6 18:44:01 10° SW 18:49:17 60° WNW 18:54:52 10° NNE
Cosmos 1898 Rocket 4.5 18:44:24 10° SSW 18:49:24 48° WNW 18:54:25 10° N
Cosmos 2100 Rocket 3.9 18:43:24 10° S 18:49:32 69° E 18:55:42 10° N
Cosmos 1459 Rocket 4.0 18:44:25 10° S 18:50:44 65° E 18:57:00 10° NNE
Ariane H10+ 3.8 18:13:00 10° W 18:52:06 77° N 18:55:44 23° ENE
Meteor 1-15 Rocket 4.3 18:48:36 10° N 18:54:29 71° E 19:00:22 10° SSE
Ariane Rocket 3.2 18:49:49 10° S 18:54:54 76° WSW 18:59:56 10° NNW
Cosmos 1844 3.8 18:49:47 10° N 18:55:23 54° ENE 19:01:00 10° SSE
Intelsat 5-1 Rocket 3.9 18:51:14 10° NW 18:55:23 17° N 18:56:23 16° NNE
SL-16 R/B 2.8 18:50:12 10° SSW 18:55:45 58° WNW 19:01:17 10° N
Okean 1-7 Rocket 4.2 18:54:58 10° SSE 18:59:06 37° E 19:00:26 30° ENE
ARIANE 5 R/B 3.7 18:55:53 10° WNW 18:59:38 56° N 19:02:59 24° E
Cosmos 1437 3.3 18:58:15 10° NNW 19:01:17 55° W 19:04:20 10° S
Cosmos 2123 Rocket 4.5 18:55:40 10° NNW 19:01:52 63° W 19:08:04 10° S
Ariane H10 3.2 19:02:41 10° WSW 19:06:04 58° S 19:14:30 16° E
Cosmos 1025 Rocket 4.3 19:03:26 10° SSW 19:07:26 40° W 19:11:26 10° NNW
Cosmos 1943 4.5 19:04:29 10° SSE 19:08:25 21° ESE 19:08:25 21° ESE
Cosmos 2061 Rocket 3.9 19:02:45 10° S 19:08:57 72° E 19:14:37 13° N
MTI 3.6 19:09:04 49° N 19:09:50 86° W 19:13:01 10° SSW
IRS-1A Rocket 4.4 19:05:57 10° S 19:11:53 82° WSW 19:17:45 10° NNW
MOS 1 4.2 19:07:33 10° SSE 19:13:13 69° ENE 19:18:51 10° N
Atlas Centaur 2 2.9 19:06:14 10° SW 19:14:04 61° SSE 19:17:05 34° E
Cosmos 2016 Rocket 3.9 19:09:30 10° S 19:15:52 73° E 19:20:32 19° NNE
Meteor 1-21 4.2 19:11:04 10° S 19:16:54 89° W 19:21:32 17° N
Dummy Sat-02 4.5 19:14:29 10° S 19:18:16 76° E 19:18:33 70° NE
Palapa B4 Rocket 2.4 19:14:33 10° WNW 19:18:19 78° NNE 19:18:32 73° ENE
CZ-2D R/B 3.5 19:14:58 10° SSE 19:18:04 49° ESE 19:18:04 49° ESE
Cosmos 1461 4.0 19:15:02 10° S 19:18:53 33° ESE 19:18:53 33° ESE
YAOGAN 6 2.9 19:19:44 10° SSE 19:22:44 54° SE 19:22:44 54° SE
SL-24 R/B - RUBIN 2 4.0 19:22:33 10° S 19:27:37 52° ESE 19:27:42 52° ESE
Ariane V96 H10-3 4.4 19:26:57 10° W 19:30:54 75° S 19:43:21 18° E
SL-08 R/B 4.3 19:25:26 10° S 19:31:36 83° E 19:34:37 33° N
Cosmos 1844 Rocket 3.9 19:26:36 10° NW 19:31:52 42° WSW 19:37:07 10° S
Ariane H10-3 3.5 19:31:02 10° WNW 19:32:01 18° WNW 19:32:01 18° WNW
Cosmos 1892 Rocket 3.5 19:30:29 10° S 19:34:33 75° SSE 19:34:33 75° SSE
Cosmos 967 Rocket 4.3 19:33:51 10° NNW 19:40:07 89° WSW 19:46:25 10° SSE
EPKM 3.6 19:28:38 10° WNW 19:40:12 61° SSW 19:40:57 51° SSE
SJ 16-02 2.9 19:39:06 10° SW 19:43:03 32° WNW 19:44:47 24° NW
SPOT 3 Rocket 3.5 19:38:54 10° S 19:44:08 81° WSW 19:45:47 45° NNW
Thor Agena Rocket 4.3 19:47:51 41° SSE 19:47:51 41° SSE 19:51:36 10° S
ATLAS CENTAUR R/B 4.2 19:53:19 49° E 19:53:19 49° E 20:09:12 10° SE
Cosmos 1603 4.0 19:51:14 10° SSW 19:56:49 60° WNW 19:57:28 56° NW
Cosmos 2233 Rocket 4.0 19:53:24 10° S 19:58:57 68° SSE 19:58:57 68° SSE
Ariane 42P Rocket 3.6 19:58:47 10° WSW 20:02:20 63° S 20:02:29 62° SSE
Cosmos 2278 Rocket 4.3 20:16:10 16° SSE 20:16:10 16° SSE 20:17:15 10° SSE
ARIANE 5 DEB (SYLDA) 4.2 20:10:17 10° W 20:30:43 74° W 20:30:43 74° W
Ariane H10 4.4 19:41:25 10° W 20:41:08 82° S 20:42:05 76° ESE
